Information on these data can be found in provided Readme document
Contact Info: Zachary Fasnacht (zachary.fasnacht@ssaihq.com); Nickolay Krotkov (nickolay.a.krotkov@nasa.gov); Lok Lamsal (lok.lamsal@nasa.gov)

FillValue: -999.
ScaleFactor: 1e15
Units: molecules/cm^2

Date(yyyy-mm-dd),City,Country,LonCenter,LatCenter,BoundingCoordinates,Median,Q1,Q3,Mean,Baseline_Median,Baseline_Q1,Baseline_Q3,Baseline_Mean,NumGoodSamples,NumTotalSamples
2015-01-01,Calcutta,India,88.4001,22.5667,[87.9001 22.0667 88.9001 23.0667],4.332,3.41,5.756,5.057,4.327,3.382,5.966,4.982,141.0,565.0
2015-01-02,Calcutta,India,88.4001,22.5667,[87.9001 22.0667 88.9001 23.0667],3.845,3.225,5.198,4.683,4.282,3.383,5.907,4.952,127.0,553.0
2015-01-03,Calcutta,India,88.4001,22.5667,[87.9001 22.0667 88.9001 23.0667],3.845,3.107,5.199,4.622,4.165,3.131,5.869,4.862,160.0,567.0
2015-01-04,Calcutta,India,88.4001,22.5667,[87.9001 22.0667 88.9001 23.0667],3.736,2.964,4.507,3.829,4.172,3.114,5.945,4.781,136.0,564.0
2015-01-05,Calcutta,India,88.4001,22.5667,[87.9001 22.0667 88.9001 23.0667],3.845,3.107,4.922,4.249,4.065,3.126,5.651,4.633,159.0,555.0
2015-01-06,Calcutta,India,88.4001,22.5667,[87.9001 22.0667 88.9001 23.0667],3.845,3.225,5.271,4.37,4.109,3.125,5.838,4.711,140.0,569.0
2015-01-07,Calcutta,India,88.4001,22.5667,[87.9001 22.0667 88.9001 23.0667],3.845,3.246,4.928,4.284,4.045,3.067,5.653,4.632,161.0,546.0
2015-01-08,Calcutta,India,88.4001,22.5667,[87.9001 22.0667 88.9001 23.0667],3.845,3.246,4.928,4.284,4.012,3.034,5.563,4.622,161.0,552.0
2015-01-09,Calcutta,India,88.4001,22.5667,[87.9001 22.0667 88.9001 23.0667],3.845,3.246,5.015,4.279,3.992,3.028,5.578,4.615,169.0,551.0
2015-01-10,Calcutta,India,88.4001,22.5667,[87.9001 22.0667 88.9001 23.0667],3.845,3.246,5.015,4.293,4.011,3.109,5.818,4.749,167.0,521.0
2015-01-11,Calcutta,India,88.4001,22.5667,[87.9001 22.0667 88.9001 23.0667],3.773,3.13,4.816,4.224,4.137,3.143,5.945,4.871,184.0,517.0
2015-01-12,Calcutta,India,88.4001,22.5667,[87.9001 22.0667 88.9001 23.0667],3.845,3.13,5.015,4.292,4.042,3.118,5.801,4.813,210.0,519.0
2015-01-13,Calcutta,India,88.4001,22.5667,[87.9001 22.0667 88.9001 23.0667],3.772,3.122,4.796,4.225,4.041,3.159,5.825,4.879,186.0,523.0
2015-01-14,Calcutta,India,88.4001,22.5667,[87.9001 22.0667 88.9001 23.0667],3.736,3.089,4.796,4.135,3.951,3.119,5.565,4.716,210.0,506.0
2015-01-15,Calcutta,India,88.4001,22.5667,[87.9001 22.0667 88.9001 23.0667],3.606,2.859,4.82,4.16,3.974,3.1,5.499,4.713,180.0,519.0
2015-01-16,Calcutta,India,88.4001,22.5667,[87.9001 22.0667 88.9001 23.0667],3.736,2.938,4.804,4.144,4.116,3.175,5.443,4.704,210.0,500.0
2015-01-17,Calcutta,India,88.4001,22.5667,[87.9001 22.0667 88.9001 23.0667],3.908,3.0,5.108,4.273,3.946,3.085,5.416,4.617,191.0,519.0
2015-01-18,Calcutta,India,88.4001,22.5667,[87.9001 22.0667 88.9001 23.0667],3.576,2.581,4.796,3.959,3.975,3.046,5.37,4.6,187.0,509.0
2015-01-19,Calcutta,India,88.4001,22.5667,[87.9001 22.0667 88.9001 23.0667],3.619,2.595,4.82,4.034,3.956,3.02,5.397,4.564,219.0,522.0
2015-01-20,Calcutta,India,88.4001,22.5667,[87.9001 22.0667 88.9001 23.0667],3.513,2.545,4.453,3.699,3.899,2.992,5.378,4.547,196.0,518.0
2015-01-21,Calcutta,India,88.4001,22.5667,[87.9001 22.0667 88.9001 23.0667],3.546,2.581,4.796,3.799,3.914,3.005,5.272,4.44,219.0,508.0
2015-01-22,Calcutta,India,88.4001,22.5667,[87.9001 22.0667 88.9001 23.0667],3.513,2.545,4.804,3.799,3.98,2.988,5.502,4.605,198.0,522.0
2015-01-23,Calcutta,India,88.4001,22.5667,[87.9001 22.0667 88.9001 23.0667],3.513,2.545,4.804,3.799,4.105,3.001,5.571,4.598,198.0,499.0
2015-01-24,Calcutta,India,88.4001,22.5667,[87.9001 22.0667 88.9001 23.0667],3.433,2.518,4.686,3.78,4.042,3.012,5.457,4.649,190.0,504.0
2015-01-25,Calcutta,India,88.4001,22.5667,[87.9001 22.0667 88.9001 23.0667],3.096,2.456,4.289,3.488,3.886,2.987,5.37,4.475,229.0,548.0
2015-01-26,Calcutta,India,88.4001,22.5667,[87.9001 22.0667 88.9001 23.0667],3.112,2.465,4.413,3.602,3.719,2.918,5.048,4.291,217.0,564.0
2015-01-27,Calcutta,India,88.4001,22.5667,[87.9001 22.0667 88.9001 23.0667],2.993,2.207,4.244,3.312,3.718,2.871,5.057,4.257,219.0,560.0
2015-01-28,Calcutta,India,88.4001,22.5667,[87.9001 22.0667 88.9001 23.0667],3.0,2.209,4.289,3.403,3.571,2.791,4.817,4.13,245.0,560.0
2015-01-29,Calcutta,India,88.4001,22.5667,[87.9001 22.0667 88.9001 23.0667],2.993,2.22,4.289,3.405,3.57,2.815,4.791,4.093,221.0,565.0
2015-01-30,Calcutta,India,88.4001,22.5667,[87.9001 22.0667 88.9001 23.0667],3.04,2.258,4.359,3.469,3.522,2.77,4.734,4.049,234.0,550.0
2015-01-31,Calcutta,India,88.4001,22.5667,[87.9001 22.0667 88.9001 23.0667],2.777,1.883,4.23,3.312,3.534,2.725,4.866,4.119,204.0,564.0
2015-02-01,Calcutta,India,88.4001,22.5667,[87.9001 22.0667 88.9001 23.0667],2.841,2.22,3.992,3.257,3.585,2.819,4.826,4.136,232.0,547.0
2015-02-02,Calcutta,India,88.4001,22.5667,[87.9001 22.0667 88.9001 23.0667],2.865,2.363,4.157,3.413,3.611,2.807,4.942,4.189,203.0,566.0
2015-02-03,Calcutta,India,88.4001,22.5667,[87.9001 22.0667 88.9001 23.0667],2.834,2.326,3.802,3.247,3.523,2.78,4.836,4.124,182.0,559.0
2015-02-04,Calcutta,India,88.4001,22.5667,[87.9001 22.0667 88.9001 23.0667],2.841,2.326,3.871,3.306,3.526,2.746,4.729,4.074,216.0,574.0
2015-02-05,Calcutta,India,88.4001,22.5667,[87.9001 22.0667 88.9001 23.0667],2.791,2.226,3.584,3.152,3.515,2.666,4.671,4.033,193.0,570.0
2015-02-06,Calcutta,India,88.4001,22.5667,[87.9001 22.0667 88.9001 23.0667],2.852,2.326,4.058,3.376,3.387,2.594,4.477,3.782,216.0,560.0
2015-02-07,Calcutta,India,88.4001,22.5667,[87.9001 22.0667 88.9001 23.0667],2.852,2.326,4.058,3.376,3.383,2.592,4.518,3.785,216.0,574.0
2015-02-08,Calcutta,India,88.4001,22.5667,[87.9001 22.0667 88.9001 23.0667],2.862,2.258,4.23,3.389,3.315,2.516,4.464,3.683,237.0,551.0
2015-02-09,Calcutta,India,88.4001,22.5667,[87.9001 22.0667 88.9001 23.0667],2.911,2.336,4.872,3.655,3.44,2.592,4.661,3.825,198.0,556.0
2015-02-10,Calcutta,India,88.4001,22.5667,[87.9001 22.0667 88.9001 23.0667],2.791,1.883,4.23,3.294,3.424,2.533,4.615,3.793,208.0,554.0
2015-02-11,Calcutta,India,88.4001,22.5667,[87.9001 22.0667 88.9001 23.0667],2.852,2.241,4.795,3.492,3.508,2.683,4.83,3.887,180.0,524.0
2015-02-12,Calcutta,India,88.4001,22.5667,[87.9001 22.0667 88.9001 23.0667],2.841,2.239,4.716,3.364,3.534,2.652,4.922,3.909,169.0,519.0
2015-02-13,Calcutta,India,88.4001,22.5667,[87.9001 22.0667 88.9001 23.0667],2.865,2.254,4.795,3.505,3.478,2.614,4.869,3.876,196.0,518.0
2015-02-14,Calcutta,India,88.4001,22.5667,[87.9001 22.0667 88.9001 23.0667],2.841,2.241,4.716,3.424,3.613,2.632,4.892,3.898,183.0,519.0
2015-02-15,Calcutta,India,88.4001,22.5667,[87.9001 22.0667 88.9001 23.0667],2.911,2.326,4.727,3.555,3.47,2.534,4.714,3.766,207.0,504.0
2015-02-16,Calcutta,India,88.4001,22.5667,[87.9001 22.0667 88.9001 23.0667],3.351,2.179,5.023,3.711,3.558,2.519,4.809,3.825,179.0,517.0
2015-02-17,Calcutta,India,88.4001,22.5667,[87.9001 22.0667 88.9001 23.0667],3.614,2.336,4.893,3.778,3.665,2.609,4.755,3.853,209.0,500.0
2015-02-18,Calcutta,India,88.4001,22.5667,[87.9001 22.0667 88.9001 23.0667],3.816,2.368,4.998,3.84,3.746,2.652,4.892,3.922,198.0,519.0
2015-02-19,Calcutta,India,88.4001,22.5667,[87.9001 22.0667 88.9001 23.0667],3.811,2.368,4.893,3.796,3.782,2.642,4.897,3.937,192.0,508.0
2015-02-20,Calcutta,India,88.4001,22.5667,[87.9001 22.0667 88.9001 23.0667],3.909,2.381,4.998,3.907,3.82,2.626,4.902,3.972,224.0,521.0
2015-02-21,Calcutta,India,88.4001,22.5667,[87.9001 22.0667 88.9001 23.0667],3.656,2.368,4.819,3.747,3.876,2.776,5.025,4.074,201.0,517.0
2015-02-22,Calcutta,India,88.4001,22.5667,[87.9001 22.0667 88.9001 23.0667],3.811,2.368,4.856,3.768,3.843,2.771,4.971,4.034,223.0,506.0
2015-02-23,Calcutta,India,88.4001,22.5667,[87.9001 22.0667 88.9001 23.0667],3.811,2.38,4.856,3.804,3.819,2.74,4.911,4.026,202.0,519.0
2015-02-24,Calcutta,India,88.4001,22.5667,[87.9001 22.0667 88.9001 23.0667],3.656,2.438,4.832,3.831,3.751,2.679,4.866,3.956,222.0,497.0
2015-02-25,Calcutta,India,88.4001,22.5667,[87.9001 22.0667 88.9001 23.0667],3.99,2.885,4.998,4.152,3.779,2.827,4.897,4.056,198.0,503.0
2015-02-26,Calcutta,India,88.4001,22.5667,[87.9001 22.0667 88.9001 23.0667],3.604,2.744,4.785,3.873,3.651,2.729,4.765,3.952,237.0,547.0
2015-02-27,Calcutta,India,88.4001,22.5667,[87.9001 22.0667 88.9001 23.0667],3.604,2.763,4.785,3.898,3.687,2.757,4.785,3.979,237.0,563.0
2015-02-28,Calcutta,India,88.4001,22.5667,[87.9001 22.0667 88.9001 23.0667],3.459,2.572,4.588,3.676,3.596,2.716,4.806,3.914,235.0,559.0
2015-03-01,Calcutta,India,88.4001,22.5667,[87.9001 22.0667 88.9001 23.0667],3.493,2.566,4.64,3.72,3.602,2.715,4.721,3.892,262.0,562.0
2015-03-02,Calcutta,India,88.4001,22.5667,[87.9001 22.0667 88.9001 23.0667],3.33,2.552,4.588,3.644,3.663,2.821,4.805,3.94,238.0,565.0
2015-03-03,Calcutta,India,88.4001,22.5667,[87.9001 22.0667 88.9001 23.0667],3.456,2.552,4.588,3.634,3.716,2.842,4.872,3.934,263.0,549.0
2015-03-04,Calcutta,India,88.4001,22.5667,[87.9001 22.0667 88.9001 23.0667],3.116,2.468,4.408,3.558,3.624,2.829,4.854,3.923,233.0,561.0
2015-03-05,Calcutta,India,88.4001,22.5667,[87.9001 22.0667 88.9001 23.0667],3.101,2.48,4.34,3.549,3.605,2.83,4.763,3.909,263.0,543.0
2015-03-06,Calcutta,India,88.4001,22.5667,[87.9001 22.0667 88.9001 23.0667],3.076,2.48,4.274,3.536,3.632,2.864,4.858,3.961,235.0,563.0
2015-03-07,Calcutta,India,88.4001,22.5667,[87.9001 22.0667 88.9001 23.0667],3.076,2.496,3.997,3.387,3.718,2.901,4.774,3.938,231.0,554.0
2015-03-08,Calcutta,India,88.4001,22.5667,[87.9001 22.0667 88.9001 23.0667],3.065,2.468,3.99,3.364,3.73,2.889,4.786,3.928,264.0,569.0
2015-03-09,Calcutta,India,88.4001,22.5667,[87.9001 22.0667 88.9001 23.0667],3.061,2.409,3.937,3.278,3.745,2.859,4.802,3.918,249.0,566.0
2015-03-10,Calcutta,India,88.4001,22.5667,[87.9001 22.0667 88.9001 23.0667],3.065,2.468,3.997,3.403,3.777,2.904,4.901,3.982,272.0,556.0
2015-03-11,Calcutta,India,88.4001,22.5667,[87.9001 22.0667 88.9001 23.0667],3.039,2.316,3.959,3.295,3.758,2.9,4.974,3.989,270.0,570.0
2015-03-12,Calcutta,India,88.4001,22.5667,[87.9001 22.0667 88.9001 23.0667],2.956,2.323,3.936,3.242,3.722,2.833,4.868,3.905,290.0,546.0
2015-03-13,Calcutta,India,88.4001,22.5667,[87.9001 22.0667 88.9001 23.0667],2.999,2.275,3.959,3.311,3.849,2.833,4.935,4.022,251.0,551.0
2015-03-14,Calcutta,India,88.4001,22.5667,[87.9001 22.0667 88.9001 23.0667],2.955,2.226,3.937,3.215,3.815,2.848,4.848,3.981,274.0,548.0
2015-03-15,Calcutta,India,88.4001,22.5667,[87.9001 22.0667 88.9001 23.0667],3.038,2.252,4.088,3.307,3.987,3.006,4.96,4.125,249.0,518.0
2015-03-16,Calcutta,India,88.4001,22.5667,[87.9001 22.0667 88.9001 23.0667],2.989,2.252,3.937,3.206,3.949,3.003,4.959,4.109,246.0,514.0
2015-03-17,Calcutta,India,88.4001,22.5667,[87.9001 22.0667 88.9001 23.0667],3.038,2.252,3.959,3.278,3.946,3.023,4.987,4.131,272.0,514.0
2015-03-18,Calcutta,India,88.4001,22.5667,[87.9001 22.0667 88.9001 23.0667],3.039,2.267,4.004,3.371,3.998,3.063,4.999,4.188,274.0,513.0
2015-03-19,Calcutta,India,88.4001,22.5667,[87.9001 22.0667 88.9001 23.0667],2.992,2.248,3.998,3.322,3.993,3.1,4.998,4.179,300.0,499.0
2015-03-20,Calcutta,India,88.4001,22.5667,[87.9001 22.0667 88.9001 23.0667],2.987,2.19,3.945,3.286,4.011,3.109,5.061,4.198,270.0,511.0
2015-03-21,Calcutta,India,88.4001,22.5667,[87.9001 22.0667 88.9001 23.0667],2.989,2.275,3.945,3.289,3.979,3.088,5.015,4.171,291.0,493.0
2015-03-22,Calcutta,India,88.4001,22.5667,[87.9001 22.0667 88.9001 23.0667],2.983,2.226,3.945,3.291,3.974,3.091,4.984,4.167,263.0,514.0
2015-03-23,Calcutta,India,88.4001,22.5667,[87.9001 22.0667 88.9001 23.0667],2.983,2.226,3.937,3.24,3.932,3.049,4.952,4.112,245.0,502.0
2015-03-24,Calcutta,India,88.4001,22.5667,[87.9001 22.0667 88.9001 23.0667],3.038,2.299,4.266,3.374,3.903,3.011,4.994,4.086,270.0,516.0
2015-03-25,Calcutta,India,88.4001,22.5667,[87.9001 22.0667 88.9001 23.0667],2.987,2.275,4.038,3.255,3.824,2.952,4.892,4.01,259.0,514.0
2015-03-26,Calcutta,India,88.4001,22.5667,[87.9001 22.0667 88.9001 23.0667],3.106,2.322,4.319,3.375,3.751,2.855,4.829,3.93,262.0,506.0
2015-03-27,Calcutta,India,88.4001,22.5667,[87.9001 22.0667 88.9001 23.0667],3.215,2.375,4.396,3.481,3.73,2.868,4.853,3.939,260.0,521.0
2015-03-28,Calcutta,India,88.4001,22.5667,[87.9001 22.0667 88.9001 23.0667],3.166,2.292,4.364,3.411,3.669,2.793,4.715,3.857,281.0,499.0
2015-03-29,Calcutta,India,88.4001,22.5667,[87.9001 22.0667 88.9001 23.0667],3.325,2.443,4.396,3.547,3.711,2.787,4.711,3.874,243.0,505.0
2015-03-30,Calcutta,India,88.4001,22.5667,[87.9001 22.0667 88.9001 23.0667],3.123,2.113,4.349,3.378,3.586,2.638,4.649,3.773,260.0,547.0
2015-03-31,Calcutta,India,88.4001,22.5667,[87.9001 22.0667 88.9001 23.0667],3.123,2.085,4.37,3.397,3.545,2.64,4.663,3.759,270.0,565.0
2015-04-01,Calcutta,India,88.4001,22.5667,[87.9001 22.0667 88.9001 23.0667],2.865,2.081,4.266,3.252,3.458,2.563,4.586,3.656,258.0,557.0
2015-04-02,Calcutta,India,88.4001,22.5667,[87.9001 22.0667 88.9001 23.0667],2.791,2.069,4.066,3.098,3.31,2.484,4.377,3.501,257.0,563.0
2015-04-03,Calcutta,India,88.4001,22.5667,[87.9001 22.0667 88.9001 23.0667],2.931,2.081,4.175,3.184,3.254,2.429,4.306,3.43,258.0,562.0
2015-04-04,Calcutta,India,88.4001,22.5667,[87.9001 22.0667 88.9001 23.0667],2.865,2.075,3.99,3.151,3.269,2.434,4.309,3.401,283.0,546.0
2015-04-05,Calcutta,India,88.4001,22.5667,[87.9001 22.0667 88.9001 23.0667],2.791,1.955,3.99,3.125,3.215,2.405,4.299,3.366,262.0,560.0
2015-04-06,Calcutta,India,88.4001,22.5667,[87.9001 22.0667 88.9001 23.0667],2.791,2.011,3.807,3.092,3.176,2.389,4.191,3.346,272.0,542.0
2015-04-07,Calcutta,India,88.4001,22.5667,[87.9001 22.0667 88.9001 23.0667],2.791,2.058,3.99,3.158,3.162,2.386,4.228,3.338,257.0,563.0
2015-04-08,Calcutta,India,88.4001,22.5667,[87.9001 22.0667 88.9001 23.0667],2.597,1.877,3.709,2.922,3.142,2.368,4.228,3.315,240.0,552.0
2015-04-09,Calcutta,India,88.4001,22.5667,[87.9001 22.0667 88.9001 23.0667],2.579,1.877,3.658,2.886,3.169,2.393,4.258,3.339,228.0,564.0
2015-04-10,Calcutta,India,88.4001,22.5667,[87.9001 22.0667 88.9001 23.0667],2.527,1.835,3.461,2.694,3.203,2.469,4.245,3.349,219.0,556.0
2015-04-11,Calcutta,India,88.4001,22.5667,[87.9001 22.0667 88.9001 23.0667],2.431,1.835,3.35,2.626,3.117,2.367,4.166,3.267,224.0,545.0
2015-04-12,Calcutta,India,88.4001,22.5667,[87.9001 22.0667 88.9001 23.0667],2.431,1.83,3.3,2.616,3.103,2.352,4.149,3.257,220.0,560.0
2015-04-13,Calcutta,India,88.4001,22.5667,[87.9001 22.0667 88.9001 23.0667],2.527,1.835,3.461,2.672,3.074,2.259,4.11,3.206,240.0,538.0
2015-04-14,Calcutta,India,88.4001,22.5667,[87.9001 22.0667 88.9001 23.0667],2.589,1.85,3.553,2.773,3.084,2.248,4.125,3.212,223.0,547.0
2015-04-15,Calcutta,India,88.4001,22.5667,[87.9001 22.0667 88.9001 23.0667],2.598,1.899,3.55,2.761,3.088,2.246,4.078,3.194,205.0,543.0
2015-04-16,Calcutta,India,88.4001,22.5667,[87.9001 22.0667 88.9001 23.0667],2.67,1.944,3.615,2.806,3.094,2.206,4.072,3.185,191.0,516.0
2015-04-17,Calcutta,India,88.4001,22.5667,[87.9001 22.0667 88.9001 23.0667],2.598,1.98,3.55,2.774,3.085,2.267,4.097,3.2,172.0,511.0
2015-04-18,Calcutta,India,88.4001,22.5667,[87.9001 22.0667 88.9001 23.0667],2.554,1.899,3.547,2.664,3.126,2.281,4.134,3.224,145.0,516.0
2015-04-19,Calcutta,India,88.4001,22.5667,[87.9001 22.0667 88.9001 23.0667],2.552,1.888,3.332,2.558,3.07,2.236,3.978,3.127,128.0,520.0
2015-04-20,Calcutta,India,88.4001,22.5667,[87.9001 22.0667 88.9001 23.0667],2.419,1.845,3.2,2.461,2.997,2.222,3.86,3.06,153.0,504.0
2015-04-21,Calcutta,India,88.4001,22.5667,[87.9001 22.0667 88.9001 23.0667],2.374,1.713,3.288,2.441,2.991,2.207,3.851,3.026,143.0,516.0
2015-04-22,Calcutta,India,88.4001,22.5667,[87.9001 22.0667 88.9001 23.0667],2.409,1.819,3.192,2.44,2.928,2.138,3.769,2.97,173.0,497.0
2015-04-23,Calcutta,India,88.4001,22.5667,[87.9001 22.0667 88.9001 23.0667],2.51,1.819,3.264,2.512,2.897,2.094,3.713,2.947,158.0,519.0
2015-04-24,Calcutta,India,88.4001,22.5667,[87.9001 22.0667 88.9001 23.0667],2.366,1.57,3.061,2.363,2.725,1.962,3.587,2.829,185.0,512.0
2015-04-25,Calcutta,India,88.4001,22.5667,[87.9001 22.0667 88.9001 23.0667],2.364,1.581,3.061,2.348,2.721,1.964,3.561,2.811,206.0,528.0
2015-04-26,Calcutta,India,88.4001,22.5667,[87.9001 22.0667 88.9001 23.0667],2.315,1.449,3.006,2.251,2.71,1.917,3.559,2.809,194.0,526.0
2015-04-27,Calcutta,India,88.4001,22.5667,[87.9001 22.0667 88.9001 23.0667],2.315,1.44,3.006,2.243,2.715,1.93,3.521,2.781,200.0,513.0
2015-04-28,Calcutta,India,88.4001,22.5667,[87.9001 22.0667 88.9001 23.0667],2.239,1.368,2.988,2.146,2.706,1.927,3.509,2.777,202.0,526.0
2015-04-29,Calcutta,India,88.4001,22.5667,[87.9001 22.0667 88.9001 23.0667],2.269,1.41,3.0,2.197,2.697,1.912,3.484,2.759,221.0,501.0
2015-04-30,Calcutta,India,88.4001,22.5667,[87.9001 22.0667 88.9001 23.0667],2.181,1.301,2.907,2.09,2.711,1.883,3.493,2.77,205.0,507.0
2015-05-01,Calcutta,India,88.4001,22.5667,[87.9001 22.0667 88.9001 23.0667],2.076,1.373,2.843,2.063,2.669,1.897,3.466,2.73,245.0,550.0
2015-05-02,Calcutta,India,88.4001,22.5667,[87.9001 22.0667 88.9001 23.0667],2.076,1.373,2.843,2.098,2.685,1.883,3.47,2.724,275.0,569.0
2015-05-03,Calcutta,India,88.4001,22.5667,[87.9001 22.0667 88.9001 23.0667],1.99,1.309,2.843,2.076,2.603,1.834,3.34,2.655,297.0,563.0
2015-05-04,Calcutta,India,88.4001,22.5667,[87.9001 22.0667 88.9001 23.0667],1.99,1.301,2.843,2.09,2.611,1.832,3.367,2.668,315.0,565.0
2015-05-05,Calcutta,India,88.4001,22.5667,[87.9001 22.0667 88.9001 23.0667],1.99,1.336,2.845,2.112,2.587,1.824,3.361,2.649,300.0,572.0
2015-05-06,Calcutta,India,88.4001,22.5667,[87.9001 22.0667 88.9001 23.0667],1.964,1.278,2.856,2.099,2.531,1.787,3.339,2.604,323.0,555.0
2015-05-07,Calcutta,India,88.4001,22.5667,[87.9001 22.0667 88.9001 23.0667],1.939,1.185,2.819,2.038,2.541,1.773,3.347,2.607,293.0,569.0
2015-05-08,Calcutta,India,88.4001,22.5667,[87.9001 22.0667 88.9001 23.0667],1.893,1.14,2.667,1.962,2.548,1.774,3.28,2.566,318.0,551.0
2015-05-09,Calcutta,India,88.4001,22.5667,[87.9001 22.0667 88.9001 23.0667],1.93,1.164,2.739,2.01,2.595,1.825,3.343,2.639,291.0,569.0
2015-05-10,Calcutta,India,88.4001,22.5667,[87.9001 22.0667 88.9001 23.0667],1.897,1.14,2.707,1.974,2.562,1.761,3.302,2.602,277.0,563.0
2015-05-11,Calcutta,India,88.4001,22.5667,[87.9001 22.0667 88.9001 23.0667],1.93,1.174,2.739,2.01,2.545,1.769,3.278,2.58,298.0,578.0
2015-05-12,Calcutta,India,88.4001,22.5667,[87.9001 22.0667 88.9001 23.0667],1.912,1.154,2.69,1.985,2.53,1.769,3.273,2.568,277.0,573.0
2015-05-13,Calcutta,India,88.4001,22.5667,[87.9001 22.0667 88.9001 23.0667],1.922,1.174,2.678,1.978,2.554,1.788,3.289,2.581,265.0,565.0
2015-05-14,Calcutta,India,88.4001,22.5667,[87.9001 22.0667 88.9001 23.0667],1.865,1.087,2.645,1.952,2.537,1.783,3.282,2.586,268.0,580.0
2015-05-15,Calcutta,India,88.4001,22.5667,[87.9001 22.0667 88.9001 23.0667],1.87,1.087,2.678,1.969,2.474,1.712,3.236,2.535,288.0,558.0
2015-05-16,Calcutta,India,88.4001,22.5667,[87.9001 22.0667 88.9001 23.0667],1.753,0.972,2.738,1.965,2.493,1.716,3.302,2.575,248.0,565.0
2015-05-17,Calcutta,India,88.4001,22.5667,[87.9001 22.0667 88.9001 23.0667],1.688,0.974,2.645,1.867,2.4,1.695,3.207,2.501,245.0,559.0
2015-05-18,Calcutta,India,88.4001,22.5667,[87.9001 22.0667 88.9001 23.0667],1.688,1.014,2.622,1.874,2.419,1.698,3.228,2.521,223.0,530.0
2015-05-19,Calcutta,India,88.4001,22.5667,[87.9001 22.0667 88.9001 23.0667],1.71,1.06,2.678,1.971,2.46,1.726,3.272,2.566,214.0,524.0
2015-05-20,Calcutta,India,88.4001,22.5667,[87.9001 22.0667 88.9001 23.0667],1.741,1.077,2.69,1.982,2.517,1.8,3.357,2.62,231.0,522.0
2015-05-21,Calcutta,India,88.4001,22.5667,[87.9001 22.0667 88.9001 23.0667],1.85,1.156,2.69,2.046,2.605,1.822,3.391,2.685,235.0,529.0
2015-05-22,Calcutta,India,88.4001,22.5667,[87.9001 22.0667 88.9001 23.0667],1.844,1.18,2.658,2.025,2.608,1.871,3.429,2.705,252.0,513.0
2015-05-23,Calcutta,India,88.4001,22.5667,[87.9001 22.0667 88.9001 23.0667],2.043,1.311,2.857,2.132,2.682,1.942,3.512,2.779,227.0,526.0
2015-05-24,Calcutta,India,88.4001,22.5667,[87.9001 22.0667 88.9001 23.0667],1.961,1.383,2.72,2.118,2.645,1.95,3.435,2.74,253.0,507.0
2015-05-25,Calcutta,India,88.4001,22.5667,[87.9001 22.0667 88.9001 23.0667],1.974,1.424,2.785,2.169,2.689,1.989,3.499,2.795,234.0,522.0
2015-05-26,Calcutta,India,88.4001,22.5667,[87.9001 22.0667 88.9001 23.0667],1.805,1.334,2.658,2.052,2.68,1.958,3.467,2.771,229.0,510.0
2015-05-27,Calcutta,India,88.4001,22.5667,[87.9001 22.0667 88.9001 23.0667],1.787,1.334,2.658,2.043,2.711,1.995,3.54,2.807,261.0,527.0
2015-05-28,Calcutta,India,88.4001,22.5667,[87.9001 22.0667 88.9001 23.0667],1.787,1.334,2.658,2.035,2.73,2.001,3.55,2.808,256.0,519.0
2015-05-29,Calcutta,India,88.4001,22.5667,[87.9001 22.0667 88.9001 23.0667],1.884,1.334,2.659,2.041,2.679,1.938,3.494,2.766,256.0,506.0
2015-05-30,Calcutta,India,88.4001,22.5667,[87.9001 22.0667 88.9001 23.0667],1.884,1.372,2.659,2.051,2.652,1.958,3.507,2.771,253.0,517.0
2015-05-31,Calcutta,India,88.4001,22.5667,[87.9001 22.0667 88.9001 23.0667],1.884,1.334,2.62,2.02,2.642,1.963,3.42,2.724,274.0,493.0
2015-06-01,Calcutta,India,88.4001,22.5667,[87.9001 22.0667 88.9001 23.0667],1.986,1.385,2.659,2.094,2.699,1.966,3.5,2.765,240.0,501.0
2015-06-02,Calcutta,India,88.4001,22.5667,[87.9001 22.0667 88.9001 23.0667],2.111,1.443,2.836,2.205,2.684,1.961,3.471,2.736,280.0,544.0
2015-06-03,Calcutta,India,88.4001,22.5667,[87.9001 22.0667 88.9001 23.0667],2.111,1.443,2.991,2.219,2.649,1.933,3.488,2.709,301.0,561.0
2015-06-04,Calcutta,India,88.4001,22.5667,[87.9001 22.0667 88.9001 23.0667],2.111,1.443,2.991,2.234,2.494,1.763,3.407,2.605,279.0,555.0
2015-06-05,Calcutta,India,88.4001,22.5667,[87.9001 22.0667 88.9001 23.0667],2.107,1.443,2.857,2.205,2.455,1.733,3.323,2.55,255.0,554.0
2015-06-06,Calcutta,India,88.4001,22.5667,[87.9001 22.0667 88.9001 23.0667],2.111,1.478,2.996,2.254,2.403,1.702,3.286,2.495,240.0,556.0
2015-06-07,Calcutta,India,88.4001,22.5667,[87.9001 22.0667 88.9001 23.0667],2.164,1.483,3.03,2.297,2.322,1.563,3.192,2.385,252.0,539.0
2015-06-08,Calcutta,India,88.4001,22.5667,[87.9001 22.0667 88.9001 23.0667],2.258,1.461,3.229,2.348,2.246,1.5,3.152,2.342,226.0,553.0
2015-06-09,Calcutta,India,88.4001,22.5667,[87.9001 22.0667 88.9001 23.0667],2.258,1.461,3.229,2.348,2.287,1.499,3.151,2.352,226.0,536.0
2015-06-10,Calcutta,India,88.4001,22.5667,[87.9001 22.0667 88.9001 23.0667],2.538,1.556,3.266,2.553,2.35,1.528,3.13,2.403,199.0,555.0
2015-06-11,Calcutta,India,88.4001,22.5667,[87.9001 22.0667 88.9001 23.0667],2.468,1.549,3.266,2.525,2.286,1.492,3.053,2.338,174.0,545.0
2015-06-12,Calcutta,India,88.4001,22.5667,[87.9001 22.0667 88.9001 23.0667],2.468,1.535,3.266,2.506,2.223,1.477,3.067,2.336,177.0,563.0
2015-06-13,Calcutta,India,88.4001,22.5667,[87.9001 22.0667 88.9001 23.0667],2.433,1.535,3.265,2.489,2.159,1.419,3.054,2.3,155.0,559.0
2015-06-14,Calcutta,India,88.4001,22.5667,[87.9001 22.0667 88.9001 23.0667],2.433,1.548,3.265,2.49,2.079,1.346,2.971,2.243,140.0,552.0
2015-06-15,Calcutta,India,88.4001,22.5667,[87.9001 22.0667 88.9001 23.0667],2.711,1.556,3.431,2.664,2.067,1.279,2.821,2.195,119.0,564.0
2015-06-16,Calcutta,India,88.4001,22.5667,[87.9001 22.0667 88.9001 23.0667],2.711,1.556,3.431,2.664,2.086,1.225,2.878,2.176,119.0,540.0
2015-06-17,Calcutta,India,88.4001,22.5667,[87.9001 22.0667 88.9001 23.0667],2.919,1.351,3.665,2.742,1.998,1.156,2.864,2.103,79.0,547.0
2015-06-18,Calcutta,India,88.4001,22.5667,[87.9001 22.0667 88.9001 23.0667],2.29,1.173,3.296,2.41,1.838,1.099,2.669,1.985,41.0,545.0
2015-06-19,Calcutta,India,88.4001,22.5667,[87.9001 22.0667 88.9001 23.0667],2.29,1.003,3.266,2.3,1.839,0.999,2.855,1.979,36.0,515.0
2015-06-20,Calcutta,India,88.4001,22.5667,[87.9001 22.0667 88.9001 23.0667],2.216,1.003,3.266,2.243,1.757,0.991,2.731,1.944,33.0,510.0
2015-06-21,Calcutta,India,88.4001,22.5667,[87.9001 22.0667 88.9001 23.0667],2.216,0.993,3.266,2.132,1.677,0.952,2.608,1.864,31.0,513.0
2015-06-22,Calcutta,India,88.4001,22.5667,[87.9001 22.0667 88.9001 23.0667],1.173,0.788,2.049,1.438,1.609,0.937,2.618,1.873,25.0,516.0
2015-06-23,Calcutta,India,88.4001,22.5667,[87.9001 22.0667 88.9001 23.0667],1.243,0.877,2.049,1.476,1.64,0.947,2.685,1.882,29.0,499.0